Current Version              Previous Version:    01  02  03  04  05  06  07  08  09  10  11  12  13  14  15  16  17  18  19  20  21  22  23  24  25  26  27  28  29  30  
   31  32  33  34  35  36  37  38  39  40  41  42  43  44  45  46  47  48  49  50  51  52  53  54  55  56  57  58  59  60  

[Printable]
267
ASUS44 KLUB 242210
RWRTX
WEST TEXAS WEATHER ROUNDUP
NATIONAL WEATHER SERVICE LUBBOCK TX
500 PM CDT THU APR 24 2014

NOTE: "FAIR" INDICATES FEW OR NO CLOUDS BELOW 12,000 FEET WITH NO
SIGNIFICANT WEATHER AND/OR OBSTRUCTIONS TO VISIBILITY.

TXZ004-006>008-010-012-014-016-OKZ002-242300-
TEXAS PANHANDLE/OKLAHOMA PANHANDLE

CITY           SKY/WX    TMP DP  RH WIND       PRES   REMARKS
AMARILLO       SUNNY     73  16  11 NW8G18    29.97F
BORGER         MOSUNNY   73  19  13 W13G18    29.95F
CANADIAN       SUNNY     73  21  14 NW13G21   29.91S
DALHART        SUNNY     68  16  13 CALM      29.98F
DUMAS          MOSUNNY   68  19  15 NW7       29.97F
GUYMON         SUNNY     69  18  14 NW12      29.92F
HEREFORD       SUNNY     72  16  11 NW9       29.99F
PAMPA          MOSUNNY   71  17  12 NW13G18   29.96F
PERRYTON       SUNNY     72  20  14 NW15G21   29.92F
$$

TXZ026-029-035-045-048-242300-
SOUTHERN PANHANDLE/SOUTH PLAINS/ROLLING PLAINS

CITY           SKY/WX    TMP DP  RH WIND       PRES   REMARKS
CHILDRESS      SUNNY     77  30  17 N20       29.91F
SEMINOLE       SUNNY     76  28  16 W7        30.00F
LUBBOCK        MOSUNNY   76  21  12 NW13G22   29.97F
PLAINVIEW      SUNNY     75  20  13 NW13      29.96F
SNYDER         SUNNY     79  29  16 NW12G17   29.95S
$$

TXZ052-054-060>062-072-078-127-140-154-169-242300-
PERMIAN BASIN/CONCHO VALLEY/BIG COUNTRY/EDWARDS PLATEAU

CITY           SKY/WX    TMP DP  RH WIND       PRES   REMARKS
ABILENE        SUNNY     81  32  17 N15G23    29.91S
BIG SPRING     SUNNY     82  25  12 NW14      29.97F
BRADY          SUNNY     84  34  16 NW9       29.89F
BROWNWOOD      SUNNY     82  34  17 N16G23    29.88F
JUNCTION       CLOUDY    89  27  10 N17G23    29.87S
MIDLAND        SUNNY     80  29  15 N10       29.96F
ODESSA         SUNNY     79  25  13 MISG      29.97F
SAN ANGELO     SUNNY     86  27  11 N16G24    29.90F
SONORA         SUNNY     86  23  10 N10       29.92S
SWEETWATER     SUNNY     80  28  15 NW12G18   29.96F
WINK           SUNNY     84  23  10 NE10      29.95F
$$

TXZ055-058-074-075-080-082-242300-
FAR WEST/SOUTHWEST MOUNTAINS/TRANS PECOS

CITY           SKY/WX    TMP DP  RH WIND       PRES   REMARKS
ALPINE         SUNNY     80  18   9 NE8       30.08F
DRYDEN           N/A     95  15   5 N17       29.88F
EL PASO        MOSUNNY   79  10   7 CALM      29.99F
FORT STOCKTON  SUNNY     81  15   8 CALM      29.97F
GUADALUPE PASS SUNNY     78  14   9 SW14      30.08F
MARFA          SUNNY     79  19  11 SE5       30.06F
PECOS          SUNNY     82  28  14 CALM      29.95F
PRESIDIO       FAIR      89  18   7 SW5       29.91F
$$

TXZ014-016-019-021>030-083-242300
TEXAS TECH WEST TEXAS MESONET/TEXAS PANHANDLE/NORTHERN SOUTH PLAINS

CITY           SKY/WX    TMP DP  RH WIND       PRES   REMARKS
ABERNATHY 5ENE   N/A     74  20  13 N10       29.97F
AMARILLO 9NNE    N/A     72  18  13 NW5       29.96F
AMARILLO 7SSE    N/A     72  17  12 NW12      29.98F
AMHERST 1NE      N/A     73  17  12 NW8       29.98F
BOOTLEG 11WNW    N/A     70  19  14 SW9       30.02F
CANADIAN 6E      N/A     72  26  17 N12       29.90S
CAPROCK CYN SP   N/A     75  22  13 NW6       29.94F
CHILDRESS 2NNE   N/A     76  31  18 NW13      29.91F
CLARENDON 2WSW   N/A     73  21  14 NW9       29.94F
CLAUDE 12SW      N/A     74  20  13 W12       29.96F
DIMMITT 2NE      N/A     71  18  13 NW6       29.99F
FLOYDADA 2NNE    N/A     75  17  11 NW12      29.96F
FRIONA 2NE       N/A     72  15  11 W2        30.00F
GOODLETT 3W      N/A     77  31  18 NW15      29.89F
HART 3N          N/A     71  19  13 NW6       29.99F
HEREFORD 2NW     N/A     73  19  13 NW6       29.98F
MCLEAN 1E        N/A     72  24  16 NW16      29.93F
MEMPHIS 1NE      N/A     76  24  14 N9        29.92F
MULESHOE 2SSW    N/A     72  18  13 SW2       29.99F
OLTON 6S         N/A     73  19  13 W8        29.98F
PALO DURO SP     N/A     73  18  12 NW3       29.98F
PAMPA 2E         N/A     71  18  13 NW13      29.95F
PLAINVIEW 1S     N/A     74  18  12 NW14      29.96F
SILVERTON 7ESE   N/A     73  20  13 NW6       29.95F
TULIA 2ENE       N/A     73  19  13 NW8       29.98S
TURKEY 2WSW      N/A     76  21  12 N13       29.92F
UMBARGER 3NNE    N/A     71  18  13 W8        29.99S
$$

TXZ033>036-039>041-045>048-242300
TEXAS TECH WEST TEXAS MESONET/SOUTH PLAINS

CITY           SKY/WX    TMP DP  RH WIND       PRES   REMARKS
AIKEN 3WSW       N/A     74  23  15 NW13      29.97F
ANDREWS 2NE      N/A     79  22  12 N12       29.98F
ANTON 6SSW       N/A     74  20  13 N8        29.98F
BROWNFIELD 2S    N/A     75  23  14 NW10      29.98F
DENVR CTY 7WNW   N/A     73  24  16 W8        30.00F
GAIL 2ESE        N/A     80  28  15 NW9       29.94F
LAMESA 2SE       N/A     77  28  16 N8        29.98F
LEVELLAND 4S     N/A     74  18  12 N3        29.99F
LUBBOCK 3WNW     N/A     75  22  13 N9G21     29.97F
MORTON 1ENE      N/A     73  18  12 W6        29.99F
ODONNELL 1N      N/A     77  20  12 N14       29.97F
PLAINS 3N        N/A     74  21  13 NW7       30.00F
RALLS 1SE        N/A     75  22  13 NW7       29.97F
REESE CENTER     N/A     75  18  12 NW12      29.98F
SEAGRAVES 1SW    N/A     76  25  15 SW5       29.98F
SEMINOLE 2NNE    N/A     77  26  15 NW7       29.99F
SLATON 2NE       N/A     76  20  12 NW12      29.97F
SNYDER 3E        N/A     81  29  15 NW13      29.93F
SUNDOWN 8SW      N/A     74  20  13 NW9       29.99F
TAHOKA 3NNE      N/A     76  21  12 N14       29.96F
WOLFFORTH 6SSW   N/A     75  21  13 N8        29.98F
$$

TXZ031-032-036>038-042>044-242300-
TEXAS TECH WEST TEXAS MESONET/ROLLING PLAINS

CITY           SKY/WX    TMP DP  RH WIND       PRES   REMARKS
ASPERMONT 3NE    N/A     80  32  17 NW14      29.90F
FLUVANNA 3WNW    N/A     79  24  13 NW12      29.95S
GRAHAM 5SSW      N/A     76  21  12 N10       29.96S
GUTHRIE 10WSW    N/A     79  28  15 NW8       29.91S
HASKELL 1NW      N/A     77  38  24 NW12      29.90R
JAYTON 1SSE      N/A     80  26  14 NW9       29.91F
KNOX CITY 3NW    N/A     80  27  14 NW15G26   29.90S
LK A HENRY 1NW   N/A     80  25  13 N12       29.92F
NORTHFIELD 1S    N/A     79  24  13 NW15      29.91F
ODELL 4ENE       N/A     78  31  17 NW18      29.89F
PADUCAH 10SW     N/A     78  27  15 NW13      29.91F
POST 1NE         N/A     79  22  12 NW7       29.94F
RRING SPRGS 3N   N/A     76  24  14 N13G22    29.93F
SEYMOUR 3NW      N/A     78  34  20 NW16      29.89S
SPUR 1W          N/A     79  20  11 NW12      29.91F
WEINERT 2NNE     N/A     79  35  20 N17       29.90S
WHITE RVR 6NE    N/A     78  21  12 NW13      29.94F
$$

TXZ052-054-060>062-072-078-127-140-154-169-242300-
TEXAS TECH WEST TEXAS MESONET/PERMIAN BASIN/
CONCHO VALLEY/BIG COUNTRY/EDWARDS PLATEAU

CITY           SKY/WX    TMP DP  RH WIND       PRES   REMARKS
COYANOSA 2N      N/A     83  24  11 SW2       29.96F
JUNCTION 1SSW    N/A     88  32  13 NW8       29.88S
MERTZON 3NNE     N/A     84  29  13 N13       29.93F
SAN ANGELO 7NW   N/A     84  25  11 NW8       29.91F
STRLNG CT 4WSW   N/A     82  29  14 NW10      29.94F
ST LAWRNCE 5SW   N/A     81  23  12 NW12      29.95F
SWEETWATR 11SW   N/A     80  33  17 N13       29.94F
WALL 1E          N/A     83  28  13 NW8       29.91F
$$

TXZ055-058-074-075-080-082-242300-
TEXAS TECH WEST TEXAS MESONET/FAR WEST/SOUTHWEST MOUNTAINS/TRANS PECOS

CITY           SKY/WX    TMP DP  RH WIND       PRES   REMARKS
PRSMN GAP BBNP   N/A     92  17   6 W3        29.89F
$$